Theta_e
310 308 307 306 303 302 301 301 299 298 298 297 296 296 296 296 296 295 295 295 295 295 294 293 293 292 292 291 290 289 288 288 287 287 287 287 286 286 285 285 285 285 285
308 308 306 303 302 301 300 300 298 298 298 297 296 295 296 296 295 294 294 294 293 293 292 292 291 291 290 288 288 287 286 285 285 285 285 285 285 284 284 285 285 285 285
308 305 304 303 301 300 300 299 298 298 297 296 295 295 295 295 293 293 293 293 292 292 291 291 290 288 287 287 286 284 283 284 284 283 283 283 283 283 284 284 284 285 285
306 305 303 302 301 301 300 298 298 297 296 295 295 295 295 294 293 293 292 292 291 290 289 288 288 287 286 285 284 283 282 282 282 282 282 282 283 283 284 283 284 284 284
306 302 302 301 300 300 298 298 298 297 295 295 295 295 294 293 293 292 291 290 289 288 287 287 287 286 285 284 283 283 282 282 281 281 281 282 282 282 282 283 283 284 284
304 302 301 300 298 298 298 297 297 296 295 295 295 294 294 293 292 290 289 288 287 287 287 287 286 285 285 284 283 282 281 281 281 281 282 282 282 283 282 282 282 282 282
302 301 299 299 297 297 297 296 295 294 295 294 294 294 294 293 292 291 289 287 286 286 286 286 286 285 284 283 282 281 279 281 281 281 281 282 282 281 281 281 281 281 282
299 299 299 297 297 296 295 295 295 294 294 294 294 293 294 293 292 290 288 286 286 286 286 286 285 284 283 282 281 279 279 279 279 280 281 280 280 280 280 281 281 282 282
299 298 297 296 295 295 295 294 294 294 294 294 293 293 293 293 290 289 287 285 285 285 285 285 284 284 283 281 280 277 278 278 279 279 278 279 280 281 281 282 283 282 283
296 295 295 294 294 294 294 294 294 293 294 293 293 292 291 290 290 288 286 285 284 284 285 284 284 282 281 280 278 277 277 278 278 277 278 280 280 281 282 282 282 283 283
295 294 293 294 294 293 293 293 293 292 293 293 292 291 291 290 289 288 286 286 284 284 284 283 283 282 281 280 278 277 277 277 277 278 279 280 281 281 281 281 281 282 284
295 294 293 293 293 293 293 293 292 292 293 292 292 291 290 290 289 288 287 286 284 282 281 282 282 282 280 279 278 278 278 278 278 278 278 279 280 280 280 281 281 282 283
293 292 292 292 293 292 292 292 292 292 292 291 291 291 290 290 289 288 288 286 284 282 282 281 281 281 280 280 280 279 278 279 279 278 278 278 278 279 280 280 280 281 282
292 292 292 292 292 292 292 292 292 292 291 291 290 290 290 290 289 288 287 285 284 282 282 282 282 281 281 281 281 281 280 279 279 278 278 277 278 278 279 279 280 281 282
292 292 291 291 291 292 291 291 291 290 290 290 290 290 290 289 289 288 287 286 285 284 283 282 281 281 283 282 281 281 281 280 279 278 277 278 278 278 278 278 280 281 281
291 291 291 291 291 291 291 291 291 290 290 289 289 288 288 288 288 287 286 285 285 283 281 281 281 282 283 282 281 281 281 280 279 278 278 277 278 277 277 278 279 280 280
290 291 290 290 291 291 291 290 289 289 289 290 290 289 288 288 286 286 285 284 283 282 281 280 280 282 283 282 282 281 281 280 279 278 277 277 277 277 277 278 278 279 279
291 291 291 290 291 292 291 290 289 289 288 288 288 289 289 288 287 286 285 284 283 282 282 281 281 282 282 282 282 281 281 280 279 278 277 277 277 277 277 278 277 277 277
292 291 291 291 292 291 290 290 289 288 288 288 288 288 288 288 287 287 285 284 283 283 283 282 281 282 283 283 282 281 281 279 278 278 277 278 277 277 277 277 277 277 277
292 292 292 292 292 291 291 290 289 289 288 288 288 288 288 288 287 286 285 284 283 283 283 283 283 283 283 283 282 281 281 279 279 279 278 277 277 276 276 277 277 277 277
291 291 291 291 291 291 290 290 289 289 289 288 288 288 288 287 288 286 285 284 284 284 284 283 283 283 282 283 282 281 280 280 279 278 278 277 277 275 276 277 277 277 276
289 289 290 289 289 289 289 289 288 288 288 288 287 287 287 287 287 287 286 286 286 285 285 284 284 283 283 283 282 282 280 280 279 279 278 277 276 276 276 276 277 277 276
286 286 287 289 288 288 288 287 287 287 287 287 288 287 287 287 287 287 286 285 285 285 285 285 284 284 283 283 282 282 281 281 279 279 278 277 276 276 276 275 276 276 275
284 284 285 286 287 287 287 286 286 286 286 287 288 287 286 286 286 286 287 286 286 285 285 285 284 284 284 283 283 282 281 281 279 279 278 277 275 275 275 275 275 275 275
283 284 284 286 286 287 287 286 286 285 285 285 285 286 286 286 285 285 285 286 286 286 286 285 285 285 284 284 283 282 282 281 279 278 277 275 274 274 274 273 274 274 274
280 281 284 285 285 286 284 283 282 282 281 280 280 281 281 282 282 284 285 285 285 285 285 285 285 285 285 284 284 282 282 281 279 278 276 275 274 274 274 274 275 274 274
Wind_Speed
18 16 14 10 12 9 10 8 6 6 7 8 11 13 14 16 13 17 18 18 13 11 8 11 10 11 13 16 18 18 20 20 17 24 26 24 26 24 26 28 28 30 30
18 17 15 12 10 14 7 8 7 6 8 9 11 13 14 13 13 14 15 14 9 9 10 10 12 14 15 15 17 17 19 23 24 23 24 24 22 25 26 27 26 26 29
18 14 10 14 11 9 10 6 7 7 8 10 12 13 15 10 11 11 10 11 10 9 10 12 13 14 17 15 14 19 21 20 22 22 24 24 23 25 27 26 26 27 26
13 12 14 5 16 4 6 6 6 8 9 12 12 14 12 8 10 11 8 8 7 11 13 14 14 14 12 14 16 17 17 19 21 21 22 23 23 24 23 24 21 25 24
12 7 7 11 5 7 6 7 8 9 11 13 13 16 10 8 10 6 6 6 8 13 17 16 13 14 17 17 14 16 14 17 19 20 21 22 21 22 21 21 22 24 26
9 10 8 12 1 6 6 7 10 12 13 12 13 16 10 8 11 9 9 8 8 13 16 13 13 14 12 11 7 7 13 17 22 21 23 22 23 21 19 22 22 22 15
11 12 5 5 8 6 6 9 11 13 12 14 16 16 12 11 12 13 11 8 9 11 13 12 13 13 14 14 15 19 23 19 22 25 25 20 20 19 24 24 23 23 23
2 3 7 6 6 7 8 12 13 15 13 13 15 16 13 12 13 13 11 8 7 11 13 12 13 12 14 15 18 23 18 19 21 23 19 21 22 26 27 26 28 27 30
7 3 8 4 7 12 12 12 13 14 14 13 15 16 12 13 13 12 12 6 7 10 12 13 13 12 13 15 19 19 18 19 18 20 24 22 22 24 25 24 23 19 19
12 13 13 8 11 13 16 15 14 14 14 15 12 8 7 7 12 13 11 7 8 11 11 11 14 9 10 14 16 16 18 18 22 25 21 22 22 22 19 17 19 19 19
5 9 15 14 14 15 18 13 13 15 17 17 15 12 11 10 11 15 11 11 11 9 11 11 10 9 14 20 14 14 14 19 19 20 20 21 19 18 19 21 22 22 23
14 10 12 14 15 15 17 16 16 18 19 14 11 12 12 14 16 17 16 15 11 13 13 12 12 15 20 15 12 12 14 15 16 17 20 19 18 20 22 24 24 23 24
8 11 13 15 15 15 16 16 14 18 17 10 12 11 14 17 16 17 18 16 15 13 11 11 14 15 15 14 11 14 14 13 13 16 18 19 21 22 22 22 24 24 24
11 13 14 14 14 15 17 17 18 18 10 11 13 15 16 14 12 11 12 15 16 15 12 12 10 16 14 13 13 10 9 11 13 15 14 19 21 21 20 21 23 22 21
13 13 14 14 15 15 16 17 16 16 13 15 16 18 16 14 15 14 13 13 17 16 12 13 15 15 12 11 11 11 10 10 11 11 15 17 18 19 20 22 20 19 16
13 14 14 14 15 16 17 18 15 18 20 20 22 21 23 21 19 19 17 16 17 16 15 12 13 17 14 10 12 14 10 9 8 14 13 15 16 17 20 22 19 18 16
15 15 16 16 16 18 15 14 19 23 20 20 20 23 23 24 23 21 19 17 17 15 16 15 17 19 15 11 12 13 10 7 9 10 11 14 14 17 17 18 19 19 18
16 19 20 23 22 18 15 18 18 18 19 21 21 20 22 25 23 24 22 18 17 19 21 19 19 19 17 14 13 12 7 7 10 10 12 12 12 14 17 15 17 18 19
22 23 24 26 25 21 21 20 21 20 20 22 22 20 19 21 22 23 19 22 20 19 21 23 24 22 20 17 14 12 10 10 11 13 10 10 11 12 14 15 15 16 19
24 26 28 28 23 22 20 20 19 19 20 19 19 20 19 18 21 23 25 25 24 24 23 22 22 19 17 17 16 13 12 12 13 11 8 8 10 10 13 14 14 14 14
26 26 28 27 21 21 21 20 20 19 21 19 20 21 22 21 19 21 24 26 27 26 25 24 24 24 24 19 17 16 15 14 13 12 10 9 9 10 11 11 12 12 14
28 28 25 23 24 23 21 19 18 21 23 21 20 20 20 21 23 23 22 21 23 27 25 24 25 26 24 23 22 20 18 19 16 13 11 11 10 8 10 9 11 10 11
27 30 29 27 21 20 21 18 20 21 22 24 22 20 19 19 20 26 25 24 22 23 25 25 26 27 26 25 26 24 22 20 17 16 14 12 10 9 8 7 9 10 9
30 31 29 27 25 22 18 17 19 21 20 22 20 17 17 17 19 19 24 27 26 25 26 27 28 29 29 28 28 27 26 23 19 18 17 16 13 9 8 7 6 8 8
30 32 30 26 26 25 20 14 12 12 14 16 18 16 16 17 18 18 16 17 21 24 26 28 29 30 31 33 31 29 28 26 23 21 18 14 13 11 11 7 6 7 7
28 34 26 20 22 20 3 8 11 13 16 18 19 19 19 19 21 19 18 16 16 17 18 20 24 27 29 32 34 32 29 27 25 24 20 14 11 10 8 8 7 6 6
Wind_Direction
171 175 172 177 174 190 198 213 227 247 275 299 310 311 307 304 319 321 318 321 321 325 333 326 328 321 309 308 310 309 315 319 313 309 310 313 319 316 316 309 306 304 300
184 177 179 191 199 204 199 223 225 242 278 300 306 303 300 310 325 317 311 310 317 319 321 320 318 314 316 325 324 327 333 326 317 311 313 318 318 315 309 307 304 301 298
183 174 196 205 203 227 225 229 232 254 282 296 297 296 299 308 315 306 309 308 311 317 313 309 314 324 322 320 319 330 323 315 315 317 313 315 314 312 310 307 307 302 304
171 206 202 193 230 230 263 245 249 270 286 293 291 289 288 304 296 300 293 301 301 313 320 323 319 316 312 313 315 309 307 313 315 312 308 307 308 309 311 311 316 318 311
202 180 211 237 250 242 260 250 259 270 283 281 282 290 282 281 279 229 235 280 318 323 317 314 317 323 318 302 303 299 300 304 304 301 299 301 303 310 314 318 322 313 313
185 211 235 233 267 290 261 265 281 284 285 288 292 290 277 269 269 246 268 277 309 312 306 314 316 313 313 330 339 310 311 297 293 288 288 291 297 310 319 318 317 313 312
197 225 238 310 250 251 272 279 284 287 289 290 289 291 276 275 259 256 255 266 303 305 304 305 312 309 308 313 311 307 310 302 299 301 288 294 298 312 316 311 307 304 300
142 326 292 275 268 272 272 278 285 284 278 292 296 294 270 261 251 241 247 275 308 297 299 306 304 304 311 311 314 317 309 308 305 306 315 319 311 308 304 296 293 292 292
182 249 276 300 313 293 286 297 292 296 288 284 290 286 277 266 245 235 243 270 297 293 295 299 301 300 286 296 313 316 311 308 313 312 314 313 309 308 305 297 289 279 283
42 353 342 316 293 294 290 288 292 288 286 285 280 272 298 283 263 237 243 273 291 287 294 301 303 288 291 311 316 313 306 309 314 321 324 318 318 315 319 327 328 321 313
8 351 318 289 284 292 291 294 302 296 287 282 278 270 254 251 250 246 251 271 277 271 280 290 299 310 311 313 309 305 299 306 318 322 319 321 324 328 327 326 322 315 306
315 286 282 294 297 295 295 296 292 285 282 288 272 263 251 259 250 247 256 261 263 261 271 276 284 292 303 309 310 303 299 317 320 325 322 321 325 325 323 323 323 321 319
287 288 299 293 294 294 293 293 294 294 284 295 299 272 263 250 249 254 253 251 255 256 278 280 277 290 297 300 301 298 298 310 313 322 318 326 324 321 326 328 330 335 335
280 282 286 294 296 297 293 291 290 294 276 277 286 273 260 250 241 252 243 244 249 247 268 278 276 297 290 291 295 304 308 306 308 313 326 323 325 330 332 333 330 334 336
284 287 288 289 291 294 294 293 297 301 292 291 279 274 267 263 247 244 247 243 242 239 236 257 287 285 272 288 296 299 301 308 313 321 324 322 326 335 334 335 330 338 340
284 282 281 284 289 288 289 297 298 298 297 285 277 271 267 268 262 253 255 253 245 254 256 263 269 274 267 272 283 290 294 304 307 323 320 326 329 333 331 334 341 344 341
277 280 283 285 284 284 286 301 305 301 296 293 286 273 269 269 265 260 258 254 254 248 244 254 259 263 265 261 272 282 290 296 311 318 318 322 329 329 329 337 344 345 343
278 276 276 276 269 268 279 290 282 285 291 293 290 281 275 268 261 258 254 251 242 235 235 237 251 261 258 252 261 272 270 286 301 300 310 313 324 327 331 336 343 340 337
282 272 269 267 266 268 275 267 269 270 273 281 287 282 277 271 260 256 248 237 236 235 235 234 242 250 254 245 247 258 259 276 278 283 286 299 316 325 327 331 336 341 343
293 288 285 284 280 269 261 266 267 265 273 275 279 272 276 276 242 235 233 234 234 239 242 243 236 243 259 248 237 237 253 266 266 266 273 293 304 313 317 326 332 336 340
312 308 305 301 294 290 285 280 278 279 279 269 277 279 277 268 256 223 225 228 232 235 239 242 240 244 253 251 239 237 253 247 251 255 266 275 281 300 308 319 327 335 340
314 304 298 292 290 290 290 283 289 289 288 270 275 281 281 279 259 239 235 238 241 238 244 243 237 237 244 240 237 238 242 239 243 244 252 255 270 280 295 309 325 335 348
320 316 312 285 275 282 284 283 289 289 290 291 266 265 273 275 274 242 238 238 245 249 250 246 244 240 240 239 238 241 230 230 240 244 238 240 249 261 277 291 317 330 342
315 309 305 303 303 286 270 279 285 291 294 296 278 272 274 281 287 285 250 244 245 251 252 251 251 247 241 235 236 238 233 235 236 230 227 238 232 239 265 272 293 315 328
318 307 297 293 295 283 265 274 300 323 333 335 338 321 296 286 288 288 287 278 265 261 260 259 258 256 252 242 235 235 238 233 228 227 234 234 219 220 241 245 264 292 308
339 350 341 325 314 303 5 12 358 357 354 348 345 343 342 337 335 319 287 284 284 281 281 276 270 266 260 252 245 236 233 228 222 222 222 220 217 219 228 243 250 266 282